Flag for Pakistan Weather past 2 weeks in Narowal, Pakistan

Now
91 °F

Haze.


Feels Like: 100 °F
Forecast: 68 / 91 °F
Wind: 3 mph from North

Location: Amritsar Airport

Current Time: Sep 16, 2014 at 4:33:54 PM

Latest Report: Sep 16, 2014 at 4:00 PM


Visibility: 3 mi

Pressure: 29.62 "Hg

Humidity: 56%

Dew point: 73 °F

Location of NarowalLocation

Historic Weather in Narowal — Graph

°F

Narowal temperature yesterday

Maximum temperature yesterday: 93 °F (at 3:00 PM)
Minimum temperature yesterday: 75 °F (at 12:30 AM)
Average temperature yesterday: 83 °F

Past Weeks' High & Low Weather Summary

 TemperatureHumidityPressure
High93 °F (Sep 11, 2:30 PM)100% (Sep 1, 10:30 PM)29.80 "Hg (Sep 1, 10:30 PM)
Low73 °F (Sep 3, 6:00 PM)49% (Sep 15, 3:00 PM)29.42 "Hg (Sep 5, 7:30 PM)
Average81 °F88%29.67 "Hg
* Reported Sep 1 3:00 PM — Sep 16 3:00 PM, Narowal, Weather by CustomWeather, © 2014

Note: Actual official high and low records may vary slightly from our data, if they occured in-between our weather recording intervals... More about our weather records

Advertising

Narowal weather history for previous 24 hours

 ConditionsComfort  
Time TempWeatherWind HumidityBarometerVisibility
3:00 PM
Sep 16
91 °FHaze.3 mph56%29.65 "Hg3 mi
2:30 PM91 °FScattered clouds.3 mph56%29.65 "Hg3 mi
1:30 PM90 °FScattered clouds.No wind63%29.65 "Hg2 mi
1:00 PM90 °FScattered clouds.5 mph59%29.68 "Hg2 mi
12:00 PM88 °FScattered clouds.6 mph62%29.68 "Hg2 mi
11:30 AM88 °FScattered clouds.6 mph66%29.71 "Hg2 mi
10:30 AM86 °FScattered clouds.3 mph70%29.71 "Hg2 mi
10:00 AM86 °FHaze.5 mph70%29.71 "Hg2 mi
9:30 AM84 °FHaze.5 mph70%29.74 "Hg2 mi
9:00 AM82 °FFog.3 mph70%29.74 "Hg2 mi
8:30 AM82 °FFog.3 mph70%29.71 "Hg2 mi
8:00 AM81 °FFog.5 mph79%29.71 "Hg2 mi
7:00 AM75 °FFog.2 mph94%29.68 "Hg1 mi
6:30 AM73 °FFog.No wind100%29.68 "Hg1 mi
6:00 AM73 °FFog.No wind100%29.68 "Hg1 mi
5:30 AM73 °FFog.No wind100%29.65 "Hg1 mi
5:00 AM73 °FFog.No wind100%29.65 "Hg1 mi
4:30 AM73 °FFog.No wind100%29.65 "Hg1 mi
4:00 AM75 °FFog.No wind100%29.65 "Hg1 mi
3:30 AM75 °FFog.No wind100%29.65 "Hg1 mi
3:00 AM77 °FFog.No wind94%29.65 "Hg1 mi
2:30 AM77 °FFog.No wind94%29.65 "Hg1 mi
2:00 AM77 °FFog.No wind94%29.65 "Hg1 mi
1:30 AM77 °FFog.No wind100%29.65 "Hg1 mi
1:00 AM79 °FFog.No wind94%29.65 "Hg2 mi
12:30 AM79 °FFog.No wind94%29.65 "Hg2 mi
12:00 AM81 °FFog.No wind84%29.65 "Hg2 mi
11:30 PM
Sep 15
81 °FFog.No wind84%29.65 "Hg2 mi
11:00 PM81 °FFog.No wind84%29.65 "Hg2 mi
10:30 PM81 °FFog.No wind84%29.65 "Hg2 mi
10:00 PM81 °FFog.No wind84%29.65 "Hg2 mi
9:30 PM82 °FFog.No wind79%29.65 "Hg2 mi
9:00 PM82 °FFog.No wind79%29.65 "Hg2 mi
8:30 PMN/AFog.No windN/A29.65 "Hg2 mi
8:00 PM82 °FFog.No wind79%29.65 "Hg3 mi
7:30 PM84 °FFog.No wind74%29.65 "Hg3 mi
6:30 PM86 °FHaze.2 mph70%29.65 "Hg3 mi
5:30 PM90 °FClear.5 mph63%29.65 "Hg4 mi
5:00 PM90 °FClear.6 mph59%29.65 "Hg4 mi
4:30 PM93 °FClear.6 mph49%29.68 "Hg4 mi
4:00 PM93 °FClear.6 mph49%29.68 "Hg4 mi
Weather by CustomWeather, © 2014

See weather overviewHow to use our weather pages